GW2706 Weather Reports


time (UTC)temp
C
wind
direction
speed
KPH
gust
KPH
rain 1hr
cm
rain 24hr
cm
rain mn
cm
humidity
%
barometer
mb
20260510203130 24 181 0.0 3.2 0.00 0.00 0.00 38 1018.6
20260510202625 24 341 4.8 4.8 0.00 0.00 0.00 40 1018.5
20260510202120 25 302 1.6 4.8 0.00 0.00 0.00 38 1018.5
20260510201618 25 180 0.0 3.2 0.00 0.00 0.00 39 1018.7
20260510201115 25 176 0.0 3.2 0.00 0.00 0.00 35 1018.5
20260510200610 25 227 1.6 3.2 0.00 0.00 0.00 37 1018.6
20260510200109 25 223 3.2 4.8 0.00 0.00 0.00 37 1018.8
20260510195606 25 139 1.6 9.7 0.00 0.00 0.00 39 1018.6
20260510195102 25 156 1.6 4.8 0.00 0.00 0.00 37 1018.8
20260510194556 25 86 1.6 9.7 0.00 0.00 0.00 40 1018.5
20260510194053 25 198 3.2 8.0 0.00 0.00 0.00 39 1018.6
20260510193548 25 173 1.6 3.2 0.00 0.00 0.00 39 1018.6
20260510193044 25 340 3.2 8.0 0.00 0.00 0.00 39 1018.6
20260510192543 24 164 0.0 4.8 0.00 0.00 0.00 38 1018.5
20260510192040 25 188 4.8 4.8 0.00 0.00 0.00 36 1018.4
20260510191536 25 214 3.2 4.8 0.00 0.00 0.00 36 1018.4
20260510191033 25 247 3.2 8.0 0.00 0.00 0.00 35 1018.4
20260510190531 25 156 0.0 9.7 0.00 0.00 0.00 38 1018.6
20260510190028 24 199 4.8 4.8 0.00 0.00 0.00 39 1018.5
20260510185524 25 133 4.8 8.0 0.00 0.00 0.00 38 1018.6
20260510185022 24 241 3.2 3.2 0.00 0.00 0.00 37 1018.7
20260510184519 25 242 6.4 9.7 0.00 0.00 0.00 38 1018.5
20260510184014 24 154 1.6 8.0 0.00 0.00 0.00 39 1018.6
20260510183510 24 269 3.2 8.0 0.00 0.00 0.00 38 1018.6
20260510183006 24 297 4.8 9.7 0.00 0.00 0.00 39 1018.4
20260510182503 24 178 1.6 14.5 0.00 0.00 0.00 41 1018.5
20260510181957 25 286 3.2 4.8 0.00 0.00 0.00 40 1018.6
20260510181456 24 236 4.8 9.7 0.00 0.00 0.00 37 1018.5
20260510180951 25 150 6.4 14.5 0.00 0.00 0.00 35 1018.5
20260510180449 24 220 8.0 14.5 0.00 0.00 0.00 37 1018.7
20260510175945 23 336 4.8 11.3 0.00 0.00 0.00 40 1018.5
20260510175441 23 289 4.8 11.3 0.00 0.00 0.00 40 1018.4
20260510174937 23 284 8.0 9.7 0.00 0.00 0.00 37 1018.4
20260510174435 23 246 3.2 4.8 0.00 0.00 0.00 44 1018.4
20260510173932 23 257 0.0 8.0 0.00 0.00 0.00 42 1018.2
20260510173427 23 133 3.2 9.7 0.00 0.00 0.00 41 1018.2
20260510172924 23 192 3.2 4.8 0.00 0.00 0.00 42 1018.3
20260510172420 23 205 3.2 8.0 0.00 0.00 0.00 40 1018.3
20260510171916 23 137 3.2 4.8 0.00 0.00 0.00 39 1018.4
20260510171414 23 171 1.6 4.8 0.00 0.00 0.00 40 1018.2
20260510170910 23 232 4.8 8.0 0.00 0.00 0.00 39 1018.2
20260510170407 23 226 3.2 9.7 0.00 0.00 0.00 39 1018.3
20260510165902 23 315 4.8 4.8 0.00 0.00 0.00 42 1018.2
20260510165359 23 208 6.4 11.3 0.00 0.00 0.00 40 1018.3
20260510164856 23 248 3.2 8.0 0.00 0.00 0.00 42 1018.4
20260510164353 23 300 6.4 9.7 0.00 0.00 0.00 44 1018.2
20260510163852 23 24 4.8 9.7 0.00 0.00 0.00 44 1018.3
20260510163349 23 281 9.7 12.9 0.00 0.00 0.00 43 1018.5
20260510162844 23 214 3.2 8.0 0.00 0.00 0.00 45 1018.4
20260510162341 23 119 3.2 4.8 0.00 0.00 0.00 44 1018.5
20260510161836 23 190 0.0 8.0 0.00 0.00 0.00 45 1018.4
20260510161333 23 202 1.6 3.2 0.00 0.00 0.00 49 1018.6
20260510160830 23 316 3.2 8.0 0.00 0.00 0.00 46 1018.5
20260510160327 22 228 3.2 9.7 0.00 0.00 0.00 48 1018.6
20260510155821 22 294 6.4 8.0 0.00 0.00 0.00 48 1018.7
20260510155318 22 171 4.8 8.0 0.00 0.00 0.00 46 1018.5
20260510154813 23 225 8.0 11.3 0.00 0.00 0.00 48 1018.4
20260510154310 22 8 4.8 4.8 0.00 0.00 0.00 48 1018.4
20260510153804 22 143 1.6 4.8 0.00 0.00 0.00 50 1018.2
20260510153300 22 185 3.2 9.7 0.00 0.00 0.00 51 1018.2
20260510152757 22 264 4.8 8.0 0.00 0.00 0.00 54 1018.4
20260510152254 21 183 1.6 3.2 0.00 0.00 0.00 56 1018.1
20260510151750 21 259 3.2 4.8 0.00 0.00 0.00 56 1018.1
20260510151249 20 247 3.2 9.7 0.00 0.00 0.00 54 1018.0
20260510150744 20 206 6.4 8.0 0.00 0.00 0.00 55 1017.9
20260510150240 20 210 3.2 4.8 0.00 0.00 0.00 57 1017.7
20260510145736 20 254 6.4 8.0 0.00 0.00 0.00 58 1017.9
20260510145233 20 17 1.6 8.0 0.00 0.00 0.00 61 1017.8
20260510144723 19 283 1.6 8.0 0.00 0.00 0.00 63 1018.0
20260510144220 20 202 1.6 4.8 0.00 0.00 0.00 64 1017.8
20260510143715 20 116 0.0 8.0 0.00 0.00 0.00 64 1017.6
20260510143212 20 212 4.8 8.0 0.00 0.00 0.00 64 1017.8
20260510142708 19 164 0.0 3.2 0.00 0.00 0.00 69 1017.6
20260510142205 19 292 3.2 3.2 0.00 0.00 0.00 71 1017.5
20260510141702 18 282 3.2 4.8 0.00 0.00 0.00 71 1017.4
20260510141200 18 231 1.6 4.8 0.00 0.00 0.00 73 1017.6
20260510140656 18 266 3.2 4.8 0.00 0.00 0.00 72 1017.0
20260510140156 18 266 1.6 3.2 0.00 0.00 0.00 74 1016.9
20260510135651 18 245 1.6 3.2 0.00 0.00 0.00 74 1017.0
20260510135147 17 204 1.6 3.2 0.00 0.00 0.00 75 1016.8
20260510134644 17 241 3.2 3.2 0.00 0.00 0.00 77 1016.9
20260510134142 17 180 0.0 0.0 0.00 0.00 0.00 79 1016.9
20260510133638 17 235 1.6 4.8 0.00 0.00 0.00 80 1016.9
20260510133133 16 298 3.2 3.2 0.00 0.00 0.00 82 1016.9
20260510132630 16 239 3.2 3.2 0.00 0.00 0.00 84 1016.4
20260510132127 16 195 1.6 3.2 0.00 0.00 0.00 86 1016.5
20260510131624 15 163 1.6 1.6 0.00 0.00 0.00 86 1016.4
20260510131122 15 266 3.2 3.2 0.00 0.00 0.00 87 1016.3
20260510130618 15 231 1.6 1.6 0.00 0.00 0.00 89 1016.3
20260510130116 15 191 0.0 0.0 0.00 0.00 0.00 90 1016.4
20260510125612 15 169 0.0 1.6 0.00 0.00 0.00 90 1016.6
20260510125108 15 210 0.0 0.0 0.00 0.00 0.00 90 1016.5
20260510124605 14 304 3.2 3.2 0.00 0.00 0.00 90 1016.4
20260510124102 14 287 1.6 3.2 0.00 0.00 0.00 90 1016.3
20260510123556 14 307 3.2 4.8 0.00 0.00 0.00 90 1016.2
20260510123053 14 217 0.0 1.6 0.00 0.00 0.00 90 1016.0
20260510122549 13 231 1.6 1.6 0.00 0.00 0.00 91 1016.0
20260510122045 13 301 3.2 4.8 0.00 0.00 0.00 91 1015.6
20260510121543 13 192 0.0 0.0 0.00 0.00 0.00 91 1015.8
20260510121040 13 141 0.0 1.6 0.00 0.00 0.00 91 1015.8
20260510120538 13 294 3.2 3.2 0.00 0.00 0.00 91 1015.8
20260510120033 13 246 0.0 0.0 0.00 0.00 0.00 91 1015.5
20260510115530 13 249 0.0 0.0 0.00 0.00 0.00 90 1015.5
20260510115027 13 161 1.6 3.2 0.00 0.00 0.00 90 1015.6
20260510114522 13 181 0.0 0.0 0.00 0.00 0.00 91 1015.5
20260510114019 13 171 0.0 1.6 0.00 0.00 0.00 91 1015.3
20260510113514 13 243 1.6 1.6 0.00 0.00 0.00 90 1015.3
20260510113012 13 205 1.6 1.6 0.00 0.00 0.00 89 1015.1
20260510112509 13 151 0.0 1.6 0.00 0.00 0.00 89 1014.9
20260510112005 13 182 0.0 0.0 0.00 0.00 0.00 88 1015.0
20260510111501 13 336 0.0 0.0 0.00 0.00 0.00 89 1014.7
20260510110957 13 137 0.0 0.0 0.00 0.00 0.00 90 1014.6
20260510110454 13 128 0.0 0.0 0.00 0.00 0.00 91 1014.5
20260510105949 13 140 0.0 0.0 0.00 0.00 0.00 91 1014.7
20260510105445 13 153 0.0 0.0 0.00 0.00 0.00 91 1014.6
20260510104940 13 170 0.0 0.0 0.00 0.00 0.00 91 1014.5
20260510104437 13 298 1.6 4.8 0.00 0.00 0.00 90 1014.5
20260510103934 13 255 3.2 3.2 0.00 0.00 0.00 90 1014.6
20260510103431 13 135 0.0 0.0 0.00 0.00 0.00 90 1014.3
20260510102926 13 169 0.0 0.0 0.00 0.00 0.00 90 1013.9
20260510102422 13 195 0.0 0.0 0.00 0.00 0.00 89 1013.9
20260510101919 14 191 0.0 0.0 0.00 0.00 0.00 89 1014.1
20260510101418 14 215 0.0 0.0 0.00 0.00 0.00 89 1014.0
20260510100915 14 137 0.0 0.0 0.00 0.00 0.00 89 1013.9
20260510100412 14 129 0.0 0.0 0.00 0.00 0.00 89 1013.8
20260510095907 14 131 0.0 0.0 0.00 0.00 0.00 89 1013.8
20260510095402 14 110 0.0 0.0 0.00 0.00 0.00 89 1013.6
20260510094856 14 107 0.0 0.0 0.00 0.00 0.00 88 1013.6
20260510094352 14 125 0.0 0.0 0.00 0.00 0.00 88 1013.5
20260510093848 15 133 0.0 1.6 0.00 0.00 0.00 88 1013.6
20260510093344 15 145 0.0 0.0 0.00 0.00 0.00 87 1013.5
20260510092840 15 95 0.0 1.6 0.00 0.00 0.00 87 1013.5
20260510092337 15 105 0.0 0.0 0.00 0.00 0.00 87 1013.7
20260510091832 15 121 0.0 0.0 0.00 0.00 0.00 87 1013.6
20260510091330 14 123 0.0 0.0 0.00 0.00 0.00 87 1013.8
20260510090826 14 130 0.0 0.0 0.00 0.00 0.00 85 1013.8
20260510090323 14 128 0.0 0.0 0.00 0.00 0.00 85 1013.8
20260510085818 14 131 0.0 0.0 0.00 0.00 0.00 85 1013.9
20260510085313 14 131 0.0 0.0 0.00 0.00 0.00 84 1013.9
20260510084809 14 131 0.0 0.0 0.00 0.00 0.00 84 1014.0
20260510084306 13 132 0.0 0.0 0.00 0.00 0.00 83 1013.9
20260510083803 13 132 0.0 0.0 0.00 0.00 0.00 83 1013.9
20260510083300 13 132 0.0 0.0 0.00 0.00 0.00 83 1013.8
20260510082755 13 131 0.0 0.0 0.00 0.00 0.00 83 1013.7
20260510082252 13 133 0.0 0.0 0.00 0.00 0.00 83 1013.6
20260510081750 13 137 0.0 0.0 0.00 0.00 0.00 84 1013.5
20260510081247 13 133 0.0 0.0 0.00 0.00 0.00 85 1013.7
20260510080743 13 151 0.0 0.0 0.00 0.00 0.00 86 1013.4
20260510080238 13 217 0.0 0.0 0.00 0.00 0.00 86 1013.4
20260510075735 13 135 0.0 0.0 0.00 0.00 0.00 86 1013.5
20260510075233 14 134 0.0 0.0 0.00 0.00 0.00 86 1013.4
20260510074730 14 139 0.0 0.0 0.00 0.00 0.00 87 1013.3
20260510074226 14 123 0.0 0.0 0.00 0.00 0.00 88 1013.4
20260510073722 14 154 0.0 0.0 0.00 0.00 0.00 87 1013.5
20260510073218 14 186 0.0 0.0 0.00 0.00 0.00 87 1013.5
20260510072714 14 138 0.0 0.0 0.00 0.00 0.00 87 1013.6
20260510072211 14 170 0.0 0.0 0.00 0.00 0.00 87 1013.3
20260510071708 14 190 0.0 1.6 0.00 0.00 0.00 87 1013.3
20260510071205 14 310 1.6 3.2 0.00 0.00 0.00 87 1013.3
20260510070702 14 141 0.0 3.2 0.00 0.00 0.00 88 1013.3
20260510070159 14 282 1.6 3.2 0.00 0.00 0.00 88 1013.3
20260510065654 14 216 0.0 8.0 0.00 0.00 0.00 89 1013.6
20260510065151 13 16 0.0 3.2 0.00 0.00 0.00 91 1013.6
20260510064648 13 339 0.0 0.0 0.00 0.00 0.00 91 1013.0
20260510064144 13 245 0.0 0.0 0.00 0.00 0.00 90 1012.9
20260510063642 13 179 0.0 0.0 0.00 0.00 0.00 90 1013.0
20260510063138 13 144 0.0 0.0 0.00 0.00 0.00 90 1013.0
20260510062634 13 183 0.0 0.0 0.00 0.00 0.00 90 1012.8
20260510062130 14 165 0.0 0.0 0.00 0.00 0.00 90 1012.7
20260510061626 14 140 0.0 0.0 0.00 0.00 0.00 90 1012.7
20260510061124 14 146 0.0 0.0 0.00 0.00 0.00 90 1012.8
20260510060620 14 150 0.0 0.0 0.00 0.00 0.00 90 1012.5
20260510060116 14 182 0.0 0.0 0.00 0.00 0.00 90 1012.8
20260510055612 14 148 0.0 0.0 0.00 0.00 0.00 90 1012.8
20260510055110 14 146 0.0 0.0 0.00 0.00 0.00 89 1013.0
20260510054606 14 147 0.0 0.0 0.00 0.00 0.00 89 1013.1
20260510054101 15 151 0.0 0.0 0.00 0.00 0.00 89 1012.9
20260510053601 15 152 0.0 0.0 0.00 0.00 0.00 89 1012.9
20260510053058 15 152 0.0 0.0 0.00 0.00 0.00 88 1012.7
20260510052554 15 140 0.0 0.0 0.00 0.00 0.00 88 1012.8
20260510052050 15 139 0.0 0.0 0.00 0.00 0.00 87 1012.7
20260510051546 15 154 0.0 0.0 0.00 0.00 0.00 87 1012.7
20260510051043 15 154 0.0 0.0 0.00 0.00 0.00 86 1012.7
20260510050540 15 163 0.0 0.0 0.00 0.00 0.00 85 1012.5
20260510050037 15 135 0.0 0.0 0.00 0.00 0.00 85 1012.6
20260510045534 15 117 0.0 0.0 0.00 0.00 0.00 84 1012.6
20260510045030 16 138 0.0 0.0 0.00 0.00 0.00 83 1012.5
20260510044527 16 192 0.0 0.0 0.00 0.00 0.00 82 1012.4
20260510044025 16 130 0.0 0.0 0.00 0.00 0.00 83 1012.5
20260510043520 16 128 0.0 0.0 0.00 0.00 0.00 85 1012.6
20260510043015 16 163 0.0 0.0 0.00 0.00 0.00 84 1012.6
20260510042510 16 167 0.0 0.0 0.00 0.00 0.00 83 1012.5
20260510042005 16 150 0.0 0.0 0.00 0.00 0.00 83 1012.4
20260510041503 17 150 0.0 0.0 0.00 0.00 0.00 82 1012.4
20260510041000 17 143 0.0 0.0 0.00 0.00 0.00 81 1012.4
20260510040456 17 144 0.0 0.0 0.00 0.00 0.00 81 1012.4
20260510035952 17 131 0.0 0.0 0.00 0.00 0.00 81 1012.5
20260510035449 17 158 0.0 0.0 0.00 0.00 0.00 81 1012.4
20260510034948 17 137 0.0 0.0 0.00 0.00 0.00 81 1012.3
20260510034447 17 139 0.0 0.0 0.00 0.00 0.00 80 1012.4
20260510033943 17 143 1.6 3.2 0.00 0.00 0.00 78 1012.3
20260510033439 18 161 0.0 0.0 0.00 0.00 0.00 76 1012.2
20260510032937 18 162 0.0 0.0 0.00 0.00 0.00 75 1012.2
20260510032433 18 145 0.0 0.0 0.00 0.00 0.00 73 1012.3
20260510031928 18 131 0.0 1.6 0.00 0.00 0.00 72 1012.1
20260510031424 18 89 1.6 3.2 0.00 0.00 0.00 69 1012.1
20260510030919 18 135 0.0 0.0 0.00 0.00 0.00 73 1012.0
20260510030415 19 139 0.0 0.0 0.00 0.00 0.00 72 1012.0
20260510025913 19 144 0.0 1.6 0.00 0.00 0.00 73 1012.0
20260510025410 19 114 0.0 1.6 0.00 0.00 0.00 64 1011.8
20260510024908 18 115 0.0 1.6 0.00 0.00 0.00 66 1011.8
20260510024404 18 117 0.0 0.0 0.00 0.00 0.00 77 1011.7
20260510023900 18 148 0.0 0.0 0.00 0.00 0.00 76 1011.6
20260510023356 19 139 0.0 0.0 0.00 0.00 0.00 75 1011.6
20260510022854 19 148 0.0 0.0 0.00 0.00 0.00 76 1011.5
20260510022353 18 134 0.0 0.0 0.00 0.00 0.00 77 1011.6
20260510021852 19 117 0.0 0.0 0.00 0.00 0.00 77 1011.4
20260510021350 19 165 0.0 0.0 0.00 0.00 0.00 76 1011.2
20260510020846 19 139 0.0 0.0 0.00 0.00 0.00 75 1011.2
20260510020346 19 134 0.0 0.0 0.00 0.00 0.00 75 1011.2
20260510015842 19 131 0.0 0.0 0.00 0.00 0.00 75 1011.2
20260510015338 20 135 0.0 0.0 0.00 0.00 0.00 74 1011.0
20260510014833 20 135 0.0 0.0 0.00 0.00 0.00 74 1011.0
20260510014331 20 135 0.0 0.0 0.00 0.00 0.00 73 1010.9
20260510013827 20 129 0.0 0.0 0.00 0.00 0.00 72 1011.0
20260510013323 20 116 0.0 0.0 0.00 0.00 0.00 72 1010.8
20260510012818 20 105 0.0 0.0 0.00 0.00 0.00 71 1010.8
20260510012317 20 133 0.0 0.0 0.00 0.00 0.00 71 1010.8
20260510011813 20 125 0.0 0.0 0.00 0.00 0.00 70 1010.7
20260510011308 21 136 0.0 0.0 0.00 0.00 0.00 69 1010.7
20260510010805 21 176 0.0 1.6 0.00 0.00 0.00 68 1010.5
20260510010302 21 124 0.0 3.2 0.00 0.00 0.00 68 1010.7
20260510005759 21 126 0.0 0.0 0.00 0.00 0.00 65 1010.4
20260510005255 21 127 0.0 0.0 0.00 0.00 0.00 65 1010.5
20260510004753 22 127 0.0 0.0 0.00 0.00 0.00 63 1010.2
20260510004250 22 135 0.0 0.0 0.00 0.00 0.00 62 1010.3
20260510003748 22 119 0.0 0.0 0.00 0.00 0.00 61 1010.1
20260510003244 22 116 0.0 0.0 0.00 0.00 0.00 58 1010.1
20260510002743 23 127 0.0 0.0 0.00 0.00 0.00 56 1010.1
20260510002241 24 137 0.0 0.0 0.00 0.00 0.00 55 1010.0
20260510001737 25 124 0.0 0.0 0.00 0.00 0.00 51 1010.0
20260510001236 26 130 0.0 0.0 0.00 0.00 0.00 47 1010.0
20260510000731 26 158 0.0 0.0 0.00 0.00 0.00 46 1010.0
20260510000229 26 218 0.0 0.0 0.00 0.00 0.00 48 1010.0
20260509235725 26 153 0.0 0.0 0.00 0.00 0.00 45 1010.1
20260509235222 27 137 0.0 0.0 0.00 0.00 0.00 43 1010.0
20260509234718 27 189 0.0 0.0 0.00 0.00 0.00 41 1010.0
20260509234215 27 168 0.0 0.0 0.00 0.00 0.00 41 1010.0
20260509233713 27 148 0.0 0.0 0.00 0.00 0.00 42 1009.9
20260509233205 26 155 0.0 0.0 0.00 0.00 0.00 39 1010.1
20260509232701 27 131 0.0 0.0 0.00 0.00 0.00 44 1009.8
20260509232158 27 183 0.0 0.0 0.00 0.00 0.00 44 1009.9
20260509231655 27 169 0.0 3.2 0.00 0.00 0.00 45 1009.8
20260509231152 26 146 0.0 0.0 0.00 0.00 0.00 42 1010.1
20260509230649 26 182 0.0 0.0 0.00 0.00 0.00 42 1009.9
20260509230146 27 245 0.0 1.6 0.00 0.00 0.00 42 1009.9
20260509225641 27 181 3.2 8.0 0.00 0.00 0.00 32 1010.0
20260509225137 27 177 1.6 3.2 0.00 0.00 0.00 31 1009.9
20260509224633 28 176 3.2 9.7 0.00 0.00 0.00 31 1009.5
20260509224130 28 243 4.8 4.8 0.00 0.00 0.00 36 1009.7
20260509223627 28 351 3.2 4.8 0.00 0.00 0.00 29 1009.6
20260509223124 28 304 8.0 9.7 0.00 0.00 0.00 33 1009.6
20260509222621 27 244 3.2 4.8 0.00 0.00 0.00 31 1009.7
20260509222116 27 289 1.6 8.0 0.00 0.00 0.00 41 1009.9
20260509221612 27 131 1.6 3.2 0.00 0.00 0.00 44 1009.7
20260509221109 27 129 0.0 0.0 0.00 0.00 0.00 43 1009.8
20260509220604 27 285 3.2 3.2 0.00 0.00 0.00 40 1009.8
20260509215556 27 230 3.2 3.2 0.00 0.00 0.00 35 1009.6
20260509215054 27 251 3.2 4.8 0.00 0.00 0.00 35 1009.7
20260509214551 27 32 1.6 3.2 0.00 0.00 0.00 34 1009.8
20260509214048 28 260 8.0 11.3 0.00 0.00 0.00 32 1009.7
20260509213544 28 188 1.6 9.7 0.00 0.00 0.00 31 1009.8
20260509213041 28 268 6.4 9.7 0.00 0.00 0.00 32 1009.8
20260509212538 28 177 1.6 11.3 0.00 0.00 0.00 34 1009.7
20260509212035 28 291 9.7 11.3 0.00 0.00 0.00 31 1009.9
20260509211530 28 266 4.8 9.7 0.00 0.00 0.00 32 1009.8
20260509211027 28 329 4.8 9.7 0.00 0.00 0.00 34 1010.0
20260509210524 28 226 1.6 3.2 0.00 0.00 0.00 34 1009.8
20260509210020 28 312 8.0 14.5 0.00 0.00 0.00 33 1009.9
20260509205515 28 249 3.2 4.8 0.00 0.00 0.00 36 1009.8
20260509205010 28 201 1.6 8.0 0.00 0.00 0.00 31 1009.8
20260509204507 28 253 3.2 11.3 0.00 0.00 0.00 34 1010.0
20260509204003 28 344 3.2 16.1 0.00 0.00 0.00 34 1010.0